Newton, KS

4:32 PM CDT on September 16, 2019 (GMT -0500)
Newton City County

Weather History for KEWK - July, 2019

Change the Weather History Date:

Wednesday, July 31, 2019

  Actual Average Record
Temperature  
Mean Temperature 82 °F -  
Max Temperature 95 °F 87 °F 102 °F (2011)
Min Temperature 69 °F 67 °F 55 °F (2014)
Cooling Degree Days 17    
Growing Degree Days 32 (Base 50)    
Moisture  
Dew Point 67 °F    
Average Humidity 63    
Maximum Humidity 87    
Minimum Humidity 41    
Precipitation  
Precipitation 0.00 in - - ()
Sea Level Pressure  
Sea Level Pressure 29.97 in    
Wind  
Wind Speed 15 mph (SE)    
Max Wind Speed 23 mph    
Max Gust Speed 33 mph    
Visibility 10 miles    
Events      
Averages and records for this station are not official NWS values.
T = Trace of Precipitation, MM = Missing Value Source: NWS Daily Summary

Daily Weather History Graph

Daily Weather History Graph

Search for Another Location

Airport or City:

Astronomy

Jul. 31, 2019 Rise Set
Actual Time 6:31 AM CDT 8:39 PM CDT
Civil Twilight 6:01 AM CDT 9:08 PM CDT
Nautical Twilight 5:25 AM CDT 9:44 PM CDT
Astronomical Twilight 4:46 AM CDT 10:23 PM CDT
Moon 5:46 AM CDT (7/31) 8:39 PM CDT (7/31)
Length of Visible Light 15h 07m
Length of Day
14h 08m
Waning Crescent, 0% of the Moon is Illuminated
Jul 31
Waning Crescent
Jul 31
New
Aug 7
First Quarter
Aug 15
Full
Aug 23
Last Quarter

Hourly Weather History & Observations

Time (CDT) Temp. Heat Index Dew Point Humidity Pressure Visibility Wind Dir Wind Speed Gust Speed Precip Events Conditions
12:56 AM 73.0 °F - 64.0 °F 73% 30.01 in 10.0 mi SE 15.0 mph - N/A   Unknown
1:56 AM 73.0 °F - 64.0 °F 73% 29.99 in 10.0 mi SSE 13.8 mph - N/A   Unknown
2:56 AM 71.1 °F - 64.0 °F 78% 29.99 in 10.0 mi ESE 10.4 mph - N/A   Unknown
3:56 AM 71.1 °F - 64.9 °F 81% 29.99 in 10.0 mi ESE 9.2 mph - N/A   Unknown
4:56 AM 71.1 °F - 64.0 °F 78% 30.01 in 10.0 mi ESE 12.7 mph - N/A   Unknown
5:56 AM 69.1 °F - 64.0 °F 84% 30.01 in 10.0 mi ESE 12.7 mph - N/A   Unknown
6:56 AM 69.1 °F - 64.9 °F 87% 30.02 in 10.0 mi SE 12.7 mph - N/A   Unknown
7:56 AM 72.0 °F - 64.9 °F 78% 30.04 in 10.0 mi ESE 12.7 mph - N/A   Unknown
8:56 AM 75.9 °F - 64.9 °F 69% 30.05 in 10.0 mi SE 16.1 mph - N/A   Unknown
9:56 AM 79.0 °F - 66.0 °F 64% 30.05 in 10.0 mi SSE 16.1 mph - N/A   Unknown
10:56 AM 82.9 °F 85.8 °F 68.0 °F 60% 30.02 in 10.0 mi SSE 20.7 mph 27.6 mph N/A   Unknown
11:56 AM 87.1 °F 91.3 °F 69.1 °F 55% 30.01 in 10.0 mi SSE 18.4 mph 25.3 mph N/A   Unknown
12:56 PM 90.0 °F 94.5 °F 69.1 °F 50% 29.98 in 10.0 mi SSE 23.0 mph 28.8 mph N/A   Unknown
1:56 PM 91.9 °F 95.9 °F 68.0 °F 45% 29.97 in 10.0 mi SSE 19.6 mph 28.8 mph N/A   Unknown
2:56 PM 93.9 °F 98.6 °F 68.0 °F 43% 29.95 in 10.0 mi SSE 20.7 mph 33.4 mph N/A   Unknown
3:56 PM 95.0 °F 99.5 °F 68.0 °F 41% 29.94 in 10.0 mi South 18.4 mph 27.6 mph N/A   Unknown
4:56 PM 93.9 °F 99.1 °F 69.1 °F 44% 29.93 in 10.0 mi South 21.9 mph 27.6 mph N/A   Unknown
5:56 PM 93.9 °F 99.1 °F 69.1 °F 44% 29.90 in 10.0 mi SSE 23.0 mph 27.6 mph N/A   Unknown
6:56 PM 91.9 °F 96.9 °F 69.1 °F 47% 29.89 in 10.0 mi SSE 18.4 mph 26.5 mph N/A   Unknown
7:56 PM 89.1 °F 93.7 °F 69.1 °F 52% 29.90 in 10.0 mi SSE 12.7 mph - N/A   Unknown
8:56 PM 87.1 °F 91.3 °F 69.1 °F 55% 29.90 in 10.0 mi SSE 12.7 mph - N/A   Unknown
9:56 PM 82.9 °F 88.0 °F 72.0 °F 69% 29.93 in 10.0 mi ESE 12.7 mph - N/A   Unknown
10:56 PM 81.0 °F 84.9 °F 71.1 °F 72% 29.94 in 10.0 mi SE 11.5 mph - N/A   Unknown
11:56 PM 79.0 °F - 71.1 °F 77% 29.96 in 10.0 mi East 8.1 mph - N/A   Unknown